PSBRB SBCH-SBRP

Flight info

Callsign PSBRB
Flight time N/A
Altitude FL250
Route UTNIP UM654 ANSOK
Aircraft BE20/L-VRDW/C

Departure

Time N/A
Airport Serafin Enoss Bertaso Airport (SBCH)

Arrival

Time 2026-04-27 21:24
Airport Leite Lopes Airport (SBRP)
Time Latitude Longitude Altitude Speed Heading
2026-04-27 19:39 -26.47704 -52.11595 16716 ft 236 kts 28°
2026-04-27 19:40 -26.46386 -52.10514 16990 ft 235 kts 27°
2026-04-27 19:40 -26.45071 -52.09437 17263 ft 234 kts 27°
2026-04-27 19:40 -26.43766 -52.08368 17534 ft 234 kts 27°
2026-04-27 19:40 -26.42457 -52.07296 17799 ft 234 kts 27°
2026-04-27 19:41 -26.41132 -52.06214 17942 ft 240 kts 27°
2026-04-27 19:41 -26.39761 -52.05099 17994 ft 248 kts 27°
2026-04-27 19:41 -26.38351 -52.03952 18003 ft 256 kts 27°
2026-04-27 19:41 -26.36894 -52.02763 18001 ft 263 kts 29°
2026-04-27 19:42 -26.35412 -52.01551 17999 ft 268 kts 28°
2026-04-27 19:42 -26.33900 -52.00312 17997 ft 273 kts 28°
2026-04-27 19:42 -26.32364 -51.99051 17995 ft 276 kts 29°
2026-04-27 19:42 -26.30813 -51.97778 17994 ft 278 kts 29°
2026-04-27 19:43 -26.29257 -51.96501 17993 ft 280 kts 29°
2026-04-27 19:43 -26.27688 -51.95214 17993 ft 281 kts 29°
2026-04-27 19:43 -26.26112 -51.93923 17992 ft 282 kts 29°
2026-04-27 19:43 -26.24531 -51.92629 17992 ft 283 kts 29°
2026-04-27 19:44 -26.22947 -51.91334 18025 ft 282 kts 29°
2026-04-27 19:44 -26.21393 -51.90061 18256 ft 274 kts 29°
2026-04-27 19:44 -26.19886 -51.88826 18520 ft 267 kts 28°
2026-04-27 19:44 -26.18407 -51.87618 18787 ft 260 kts 27°
2026-04-27 19:45 -26.16972 -51.86450 19054 ft 255 kts 27°
2026-04-27 19:45 -26.15553 -51.85301 19322 ft 250 kts 27°
2026-04-27 19:45 -26.14161 -51.84176 19590 ft 246 kts 26°
2026-04-27 19:45 -26.12791 -51.83071 19859 ft 242 kts 26°
2026-04-27 19:46 -26.11436 -51.81983 20128 ft 239 kts 25°
2026-04-27 19:46 -26.10104 -51.80916 20396 ft 236 kts 25°
2026-04-27 19:46 -26.08782 -51.79841 20662 ft 234 kts 26°
2026-04-27 19:46 -26.07476 -51.78768 20919 ft 234 kts 27°
2026-04-27 19:47 -26.06179 -51.77701 21188 ft 232 kts 26°
2026-04-27 19:47 -26.04886 -51.76638 21459 ft 231 kts 26°
2026-04-27 19:47 -26.03598 -51.75581 21732 ft 229 kts 26°
2026-04-27 19:47 -26.02321 -51.74537 22004 ft 227 kts 25°
2026-04-27 19:48 -26.01059 -51.73506 22276 ft 225 kts 25°
2026-04-27 19:48 -25.99804 -51.72483 22549 ft 223 kts 25°
2026-04-27 19:48 -25.98566 -51.71475 22819 ft 220 kts 25°
2026-04-27 19:48 -25.97341 -51.70479 23089 ft 217 kts 25°
2026-04-27 19:49 -25.96133 -51.69497 23358 ft 215 kts 24°
2026-04-27 19:49 -25.94939 -51.68528 23626 ft 212 kts 24°
2026-04-27 19:49 -25.93760 -51.67571 23894 ft 209 kts 24°
2026-04-27 19:49 -25.92595 -51.66627 24162 ft 206 kts 24°
2026-04-27 19:50 -25.91455 -51.65703 24428 ft 202 kts 23°
2026-04-27 19:50 -25.90325 -51.64788 24695 ft 199 kts 23°
2026-04-27 19:50 -25.89207 -51.63886 24876 ft 201 kts 22°
2026-04-27 19:50 -25.88060 -51.62968 24952 ft 207 kts 23°
2026-04-27 19:51 -25.86868 -51.62014 24969 ft 216 kts 24°
2026-04-27 19:51 -25.85632 -51.61020 24969 ft 224 kts 24°
2026-04-27 19:51 -25.84351 -51.59984 24966 ft 231 kts 25°
2026-04-27 19:51 -25.83040 -51.58919 24963 ft 237 kts 25°
2026-04-27 19:52 -25.81702 -51.57830 24961 ft 242 kts 25°
2026-04-27 19:52 -25.80339 -51.56719 24959 ft 246 kts 25°
2026-04-27 19:52 -25.78960 -51.55595 24958 ft 249 kts 26°
2026-04-27 19:52 -25.77557 -51.54453 24958 ft 252 kts 26°
2026-04-27 19:53 -25.74721 -51.52147 24958 ft 256 kts 26°
2026-04-27 19:53 -25.73278 -51.50976 24959 ft 257 kts 26°
2026-04-27 19:53 -25.71832 -51.49804 24959 ft 259 kts 26°
2026-04-27 19:54 -25.70377 -51.48627 24958 ft 260 kts 26°
2026-04-27 19:54 -25.68910 -51.47442 24958 ft 261 kts 26°
2026-04-27 19:54 -25.67443 -51.46259 24958 ft 262 kts 26°
2026-04-27 19:54 -25.65969 -51.45072 24958 ft 263 kts 26°
2026-04-27 19:55 -25.64490 -51.43884 24955 ft 264 kts 26°
2026-04-27 19:55 -25.63004 -51.42694 24954 ft 264 kts 26°
2026-04-27 19:55 -25.61513 -51.41505 24954 ft 265 kts 26°
2026-04-27 19:55 -25.60025 -51.40333 24954 ft 265 kts 25°
2026-04-27 19:56 -25.58506 -51.39163 24954 ft 265 kts 25°
2026-04-27 19:56 -25.56990 -51.38018 24954 ft 264 kts 24°
2026-04-27 19:56 -25.55483 -51.36895 24953 ft 262 kts 24°
2026-04-27 19:56 -25.53974 -51.35784 24953 ft 260 kts 23°
2026-04-27 19:57 -25.52470 -51.34687 24954 ft 259 kts 23°
2026-04-27 19:57 -25.50967 -51.33598 24954 ft 258 kts 23°
2026-04-27 19:57 -25.49472 -51.32520 24955 ft 257 kts 22°
2026-04-27 19:57 -25.47982 -51.31449 24957 ft 256 kts 22°
2026-04-27 19:58 -25.46489 -51.30379 24956 ft 255 kts 22°
2026-04-27 19:58 -25.45002 -51.29315 24955 ft 255 kts 22°
2026-04-27 19:58 -25.43524 -51.28259 24955 ft 254 kts 22°
2026-04-27 19:58 -25.42039 -51.27199 24955 ft 254 kts 22°
2026-04-27 19:59 -25.40560 -51.26144 24955 ft 253 kts 22°
2026-04-27 19:59 -25.39086 -51.25094 24956 ft 253 kts 22°
2026-04-27 19:59 -25.37611 -51.24045 24957 ft 253 kts 22°
2026-04-27 19:59 -25.36135 -51.22998 24957 ft 252 kts 22°
2026-04-27 20:00 -25.34660 -51.21954 24957 ft 252 kts 22°
2026-04-27 20:00 -25.33187 -51.20916 24958 ft 252 kts 22°
2026-04-27 20:00 -25.31708 -51.19875 24959 ft 252 kts 22°
2026-04-27 20:00 -25.30245 -51.18815 24957 ft 252 kts 23°
2026-04-27 20:01 -25.28786 -51.17747 24955 ft 253 kts 23°
2026-04-27 20:01 -25.27323 -51.16674 24955 ft 253 kts 23°
2026-04-27 20:01 -25.25856 -51.15604 24955 ft 253 kts 23°
2026-04-27 20:01 -25.24395 -51.14543 24955 ft 253 kts 23°
2026-04-27 20:02 -25.22926 -51.13479 24954 ft 253 kts 22°
2026-04-27 20:02 -25.21461 -51.12421 24956 ft 252 kts 22°
2026-04-27 20:02 -25.19992 -51.11364 24957 ft 252 kts 22°
2026-04-27 20:02 -25.18521 -51.10307 24957 ft 252 kts 22°
2026-04-27 20:03 -25.17056 -51.09256 24957 ft 252 kts 22°
2026-04-27 20:03 -25.15585 -51.08202 24962 ft 252 kts 22°
2026-04-27 20:03 -25.14119 -51.07153 24965 ft 251 kts 22°
2026-04-27 20:03 -25.12658 -51.06111 24961 ft 252 kts 22°
2026-04-27 20:04 -25.11190 -51.05066 24958 ft 252 kts 22°
2026-04-27 20:04 -25.09721 -51.04023 24957 ft 252 kts 22°
2026-04-27 20:04 -25.08248 -51.02982 24957 ft 252 kts 22°
2026-04-27 20:04 -25.06775 -51.01945 24958 ft 252 kts 22°
2026-04-27 20:05 -25.05307 -51.00884 24959 ft 252 kts 23°
2026-04-27 20:05 -25.03849 -50.99817 24961 ft 252 kts 23°
2026-04-27 20:05 -25.02389 -50.98751 24962 ft 252 kts 23°
2026-04-27 20:05 -25.00930 -50.97692 24963 ft 252 kts 22°
2026-04-27 20:06 -24.99465 -50.96635 24958 ft 252 kts 22°
2026-04-27 20:06 -24.97996 -50.95579 24955 ft 252 kts 22°
2026-04-27 20:06 -24.96530 -50.94529 24952 ft 253 kts 22°
2026-04-27 20:06 -24.95055 -50.93476 24942 ft 254 kts 23°
2026-04-27 20:07 -24.93572 -50.92420 24935 ft 254 kts 23°
2026-04-27 20:07 -24.92089 -50.91363 24932 ft 255 kts 23°
2026-04-27 20:07 -24.90604 -50.90306 24931 ft 255 kts 23°
2026-04-27 20:07 -24.89115 -50.89247 24931 ft 256 kts 23°
2026-04-27 20:08 -24.87617 -50.88182 24930 ft 256 kts 23°
2026-04-27 20:08 -24.86129 -50.87125 24935 ft 256 kts 23°
2026-04-27 20:08 -24.84638 -50.86067 24940 ft 256 kts 22°
2026-04-27 20:08 -24.83147 -50.85008 24953 ft 254 kts 22°
2026-04-27 20:09 -24.81667 -50.83959 24960 ft 254 kts 22°
2026-04-27 20:09 -24.80181 -50.82908 24962 ft 253 kts 22°
2026-04-27 20:09 -24.78705 -50.81865 24963 ft 253 kts 22°
2026-04-27 20:09 -24.77227 -50.80822 24958 ft 253 kts 22°
2026-04-27 20:10 -24.75747 -50.79778 24955 ft 253 kts 22°
2026-04-27 20:10 -24.74270 -50.78737 24955 ft 253 kts 22°
2026-04-27 20:10 -24.72792 -50.77696 24955 ft 253 kts 22°
2026-04-27 20:10 -24.71310 -50.76653 24955 ft 253 kts 22°
2026-04-27 20:11 -24.69827 -50.75610 24956 ft 253 kts 22°
2026-04-27 20:11 -24.68349 -50.74573 24957 ft 253 kts 22°
2026-04-27 20:11 -24.66867 -50.73536 24956 ft 253 kts 22°
2026-04-27 20:11 -24.65385 -50.72501 24954 ft 253 kts 22°
2026-04-27 20:12 -24.63900 -50.71470 24952 ft 253 kts 22°
2026-04-27 20:12 -24.62418 -50.70448 24950 ft 253 kts 22°
2026-04-27 20:12 -24.60936 -50.69401 24948 ft 254 kts 23°
2026-04-27 20:12 -24.59455 -50.68329 24936 ft 256 kts 24°
2026-04-27 20:13 -24.57970 -50.67250 24931 ft 256 kts 24°
2026-04-27 20:13 -24.56486 -50.66175 24929 ft 257 kts 24°
2026-04-27 20:13 -24.54991 -50.65099 24928 ft 257 kts 24°
2026-04-27 20:13 -24.53497 -50.64028 24928 ft 257 kts 24°
2026-04-27 20:14 -24.52003 -50.62963 24928 ft 257 kts 23°
2026-04-27 20:14 -24.50506 -50.61897 24941 ft 256 kts 22°
2026-04-27 20:14 -24.49012 -50.60837 24953 ft 255 kts 22°
2026-04-27 20:14 -24.47526 -50.59786 24957 ft 255 kts 22°
2026-04-27 20:15 -24.46043 -50.58739 24958 ft 254 kts 22°
2026-04-27 20:15 -24.44558 -50.57693 24959 ft 254 kts 22°
2026-04-27 20:15 -24.43072 -50.56647 24957 ft 254 kts 22°
2026-04-27 20:15 -24.41581 -50.55600 24946 ft 255 kts 22°
2026-04-27 20:16 -24.40090 -50.54553 24940 ft 255 kts 22°
2026-04-27 20:16 -24.38597 -50.53504 24937 ft 256 kts 23°
2026-04-27 20:16 -24.37104 -50.52456 24935 ft 256 kts 23°
2026-04-27 20:16 -24.35603 -50.51402 24934 ft 256 kts 23°
2026-04-27 20:17 -24.34105 -50.50351 24933 ft 257 kts 23°
2026-04-27 20:17 -24.32605 -50.49299 24932 ft 257 kts 23°
2026-04-27 20:17 -24.31097 -50.48243 24932 ft 257 kts 23°
2026-04-27 20:17 -24.29595 -50.47193 24932 ft 257 kts 23°
2026-04-27 20:18 -24.28089 -50.46141 24933 ft 257 kts 23°
2026-04-27 20:18 -24.26584 -50.45091 24933 ft 257 kts 22°
2026-04-27 20:18 -24.25074 -50.44042 24931 ft 257 kts 23°
2026-04-27 20:18 -24.23560 -50.42993 24927 ft 258 kts 23°
2026-04-27 20:19 -24.22043 -50.41946 24926 ft 258 kts 22°
2026-04-27 20:19 -24.20527 -50.40906 24925 ft 258 kts 22°
2026-04-27 20:19 -24.19010 -50.39864 24925 ft 259 kts 23°
2026-04-27 20:19 -24.17504 -50.38792 24926 ft 259 kts 24°
2026-04-27 20:20 -24.15997 -50.37706 24932 ft 259 kts 24°
2026-04-27 20:20 -24.14499 -50.36631 24936 ft 258 kts 23°
2026-04-27 20:20 -24.12991 -50.35558 24937 ft 258 kts 23°
2026-04-27 20:20 -24.11492 -50.34501 24937 ft 258 kts 23°
2026-04-27 20:21 -24.09985 -50.33446 24938 ft 258 kts 22°
2026-04-27 20:21 -24.08476 -50.32396 24938 ft 257 kts 22°
2026-04-27 20:21 -24.06962 -50.31349 24933 ft 258 kts 22°
2026-04-27 20:21 -24.05450 -50.30310 24930 ft 258 kts 22°
2026-04-27 20:22 -24.03930 -50.29274 24928 ft 258 kts 22°
2026-04-27 20:22 -24.02413 -50.28230 24928 ft 259 kts 23°
2026-04-27 20:22 -24.00904 -50.27151 24927 ft 259 kts 24°
2026-04-27 20:22 -23.99402 -50.26071 24927 ft 259 kts 24°
2026-04-27 20:23 -23.97893 -50.24990 24928 ft 259 kts 24°
2026-04-27 20:23 -23.96387 -50.23920 24929 ft 259 kts 23°
2026-04-27 20:23 -23.94877 -50.22856 24930 ft 259 kts 23°
2026-04-27 20:23 -23.93364 -50.21796 24930 ft 259 kts 23°
2026-04-27 20:24 -23.91848 -50.20741 24931 ft 259 kts 23°
2026-04-27 20:24 -23.90328 -50.19687 24930 ft 259 kts 23°
2026-04-27 20:24 -23.88808 -50.18637 24925 ft 259 kts 23°
2026-04-27 20:24 -23.87291 -50.17594 24923 ft 259 kts 23°
2026-04-27 20:25 -23.85764 -50.16548 24922 ft 259 kts 23°
2026-04-27 20:25 -23.84237 -50.15508 24922 ft 259 kts 22°
2026-04-27 20:25 -23.82702 -50.14472 24928 ft 259 kts 22°
2026-04-27 20:25 -23.81190 -50.13420 24933 ft 260 kts 24°
2026-04-27 20:26 -23.79681 -50.12333 24936 ft 260 kts 24°
2026-04-27 20:26 -23.78179 -50.11247 24938 ft 259 kts 24°
2026-04-27 20:26 -23.76679 -50.10168 24938 ft 259 kts 24°
2026-04-27 20:26 -23.75170 -50.09090 24938 ft 259 kts 24°
2026-04-27 20:27 -23.73666 -50.08023 24938 ft 259 kts 24°
2026-04-27 20:27 -23.72161 -50.06963 24933 ft 259 kts 24°
2026-04-27 20:27 -23.70644 -50.05898 24926 ft 260 kts 24°
2026-04-27 20:27 -23.69123 -50.04835 24923 ft 260 kts 24°
2026-04-27 20:28 -23.67602 -50.03772 24920 ft 260 kts 24°
2026-04-27 20:28 -23.66082 -50.02712 24918 ft 261 kts 24°
2026-04-27 20:28 -23.64556 -50.01649 24916 ft 261 kts 24°
2026-04-27 20:28 -23.63534 -50.00938 24917 ft 261 kts 24°
2026-04-27 20:29 -23.61498 -49.99522 24918 ft 261 kts 24°
2026-04-27 20:29 -23.59973 -49.98462 24918 ft 261 kts 24°
2026-04-27 20:29 -23.58446 -49.97402 24919 ft 261 kts 24°
2026-04-27 20:29 -23.56912 -49.96338 24920 ft 261 kts 24°
2026-04-27 20:30 -23.55393 -49.95286 24920 ft 261 kts 24°
2026-04-27 20:30 -23.53855 -49.94220 24918 ft 261 kts 24°
2026-04-27 20:30 -23.52326 -49.93162 24917 ft 261 kts 24°
2026-04-27 20:30 -23.50793 -49.92101 24916 ft 261 kts 24°
2026-04-27 20:31 -23.49258 -49.91040 24918 ft 261 kts 24°
2026-04-27 20:31 -23.47727 -49.89982 24919 ft 261 kts 24°
2026-04-27 20:31 -23.46197 -49.88925 24920 ft 261 kts 24°
2026-04-27 20:31 -23.44664 -49.87868 24920 ft 261 kts 24°
2026-04-27 20:32 -23.43132 -49.86811 24920 ft 261 kts 24°
2026-04-27 20:32 -23.41602 -49.85758 24920 ft 261 kts 24°
2026-04-27 20:32 -23.40071 -49.84705 24920 ft 261 kts 24°
2026-04-27 20:32 -23.38533 -49.83648 24921 ft 261 kts 24°
2026-04-27 20:33 -23.37000 -49.82596 24920 ft 261 kts 24°
2026-04-27 20:33 -23.35466 -49.81546 24918 ft 261 kts 24°
2026-04-27 20:33 -23.33929 -49.80495 24917 ft 261 kts 24°
2026-04-27 20:33 -23.32396 -49.79450 24917 ft 261 kts 24°
2026-04-27 20:34 -23.30856 -49.78404 24917 ft 261 kts 24°
2026-04-27 20:34 -23.29318 -49.77363 24917 ft 261 kts 24°
2026-04-27 20:34 -23.27780 -49.76331 24918 ft 261 kts 24°
2026-04-27 20:34 -23.26239 -49.75304 24919 ft 261 kts 24°
2026-04-27 20:35 -23.24713 -49.74237 24920 ft 262 kts 25°
2026-04-27 20:35 -23.23198 -49.73150 24921 ft 262 kts 25°
2026-04-27 20:35 -23.21680 -49.72062 24922 ft 262 kts 25°
2026-04-27 20:35 -23.20155 -49.70976 24922 ft 262 kts 25°
2026-04-27 20:36 -23.18631 -49.69902 24919 ft 262 kts 25°
2026-04-27 20:36 -23.17110 -49.68837 24918 ft 261 kts 25°
2026-04-27 20:36 -23.15579 -49.67770 24923 ft 261 kts 24°
2026-04-27 20:36 -23.14049 -49.66711 24928 ft 261 kts 24°
2026-04-27 20:37 -23.12523 -49.65657 24931 ft 261 kts 24°
2026-04-27 20:37 -23.10992 -49.64603 24933 ft 261 kts 24°
2026-04-27 20:37 -23.09464 -49.63553 24937 ft 261 kts 24°
2026-04-27 20:37 -23.07929 -49.62500 24938 ft 261 kts 24°
2026-04-27 20:38 -23.06398 -49.61452 24939 ft 261 kts 24°
2026-04-27 20:38 -23.04869 -49.60405 24939 ft 261 kts 24°
2026-04-27 20:38 -23.03333 -49.59356 24938 ft 261 kts 24°
2026-04-27 20:38 -23.01796 -49.58307 24944 ft 261 kts 24°
2026-04-27 20:39 -23.00261 -49.57260 24948 ft 261 kts 24°
2026-04-27 20:39 -22.98725 -49.56214 24950 ft 261 kts 24°
2026-04-27 20:39 -22.97192 -49.55172 24951 ft 261 kts 24°
2026-04-27 20:39 -22.95658 -49.54131 24951 ft 261 kts 24°
2026-04-27 20:40 -22.94115 -49.53086 24951 ft 261 kts 24°
2026-04-27 20:40 -22.92579 -49.52050 24951 ft 261 kts 24°
2026-04-27 20:40 -22.91039 -49.51015 24951 ft 261 kts 24°
2026-04-27 20:40 -22.89495 -49.49985 24951 ft 261 kts 24°
2026-04-27 20:41 -22.87948 -49.48962 24951 ft 261 kts 24°
2026-04-27 20:41 -22.86407 -49.47932 24951 ft 262 kts 25°
2026-04-27 20:41 -22.84877 -49.46858 24951 ft 262 kts 26°
2026-04-27 20:41 -22.83359 -49.45779 24951 ft 262 kts 26°
2026-04-27 20:42 -22.81831 -49.44699 24951 ft 262 kts 26°
2026-04-27 20:42 -22.80307 -49.43633 24951 ft 262 kts 25°
2026-04-27 20:42 -22.78774 -49.42571 24951 ft 262 kts 25°
2026-04-27 20:42 -22.77241 -49.41517 24951 ft 262 kts 25°
2026-04-27 20:43 -22.75702 -49.40466 24951 ft 262 kts 25°
2026-04-27 20:43 -22.74179 -49.39431 24951 ft 261 kts 25°
2026-04-27 20:43 -22.72630 -49.38382 24951 ft 261 kts 25°
2026-04-27 20:43 -22.71088 -49.37341 24951 ft 261 kts 25°
2026-04-27 20:44 -22.69545 -49.36301 24951 ft 261 kts 25°
2026-04-27 20:44 -22.68004 -49.35265 24951 ft 261 kts 24°
2026-04-27 20:44 -22.66466 -49.34235 24951 ft 261 kts 25°
2026-04-27 20:44 -22.64921 -49.33201 24951 ft 261 kts 25°
2026-04-27 20:45 -22.63374 -49.32171 24951 ft 261 kts 24°
2026-04-27 20:45 -22.61828 -49.31144 24951 ft 261 kts 24°
2026-04-27 20:45 -22.60283 -49.30124 24951 ft 261 kts 24°
2026-04-27 20:45 -22.58735 -49.29111 24951 ft 261 kts 24°
2026-04-27 20:46 -22.57180 -49.28101 24951 ft 261 kts 25°
2026-04-27 20:46 -22.55650 -49.27048 24951 ft 262 kts 26°
2026-04-27 20:46 -22.54127 -49.25969 24951 ft 262 kts 26°
2026-04-27 20:46 -22.52604 -49.24889 24951 ft 262 kts 26°
2026-04-27 20:47 -22.51081 -49.23818 24951 ft 262 kts 26°
2026-04-27 20:47 -22.49550 -49.22753 24951 ft 262 kts 26°
2026-04-27 20:47 -22.48016 -49.21698 24951 ft 262 kts 25°
2026-04-27 20:47 -22.46484 -49.20654 24951 ft 261 kts 25°
2026-04-27 20:48 -22.44945 -49.19616 24951 ft 261 kts 25°
2026-04-27 20:48 -22.43402 -49.18586 24951 ft 261 kts 25°
2026-04-27 20:48 -22.41856 -49.17556 24951 ft 262 kts 27°
2026-04-27 20:48 -22.40407 -49.16332 24951 ft 266 kts 35°
2026-04-27 20:49 -22.39054 -49.14974 24952 ft 268 kts 38°
2026-04-27 20:49 -22.37733 -49.13554 24952 ft 268 kts 39°
2026-04-27 20:49 -22.36429 -49.12112 24951 ft 269 kts 39°
2026-04-27 20:49 -22.35129 -49.10660 24951 ft 269 kts 40°
2026-04-27 20:50 -22.33838 -49.09214 24951 ft 269 kts 40°
2026-04-27 20:50 -22.32540 -49.07759 24951 ft 269 kts 40°
2026-04-27 20:50 -22.31247 -49.06311 24951 ft 269 kts 40°
2026-04-27 20:50 -22.29949 -49.04860 24951 ft 269 kts 40°
2026-04-27 20:51 -22.28657 -49.03416 24951 ft 269 kts 40°
2026-04-27 20:51 -22.27355 -49.01963 24951 ft 269 kts 40°
2026-04-27 20:51 -22.26061 -49.00519 24951 ft 269 kts 40°
2026-04-27 20:51 -22.24761 -48.99069 24951 ft 269 kts 40°
2026-04-27 20:52 -22.23468 -48.97627 24951 ft 269 kts 39°
2026-04-27 20:52 -22.22169 -48.96180 24951 ft 269 kts 39°
2026-04-27 20:52 -22.20871 -48.94735 24951 ft 269 kts 39°
2026-04-27 20:52 -22.19566 -48.93283 24951 ft 269 kts 39°
2026-04-27 20:53 -22.18269 -48.91840 24951 ft 269 kts 39°
2026-04-27 20:53 -22.16971 -48.90396 24951 ft 269 kts 39°
2026-04-27 20:53 -22.15671 -48.88951 24951 ft 269 kts 39°
2026-04-27 20:53 -22.14373 -48.87507 24951 ft 269 kts 39°
2026-04-27 20:54 -22.11768 -48.84613 24950 ft 269 kts 39°
2026-04-27 20:54 -22.10470 -48.83172 24950 ft 269 kts 39°
2026-04-27 20:54 -22.09166 -48.81724 24950 ft 269 kts 39°
2026-04-27 20:55 -22.07865 -48.80280 24950 ft 269 kts 39°
2026-04-27 20:55 -22.06563 -48.78836 24950 ft 269 kts 39°
2026-04-27 20:55 -22.05262 -48.77392 24950 ft 269 kts 39°
2026-04-27 20:55 -22.03962 -48.75950 24950 ft 269 kts 39°
2026-04-27 20:56 -22.02657 -48.74504 24950 ft 269 kts 38°
2026-04-27 20:56 -22.01355 -48.73061 24951 ft 269 kts 39°
2026-04-27 20:56 -22.00053 -48.71618 24951 ft 269 kts 39°
2026-04-27 20:56 -21.98749 -48.70173 24951 ft 270 kts 39°
2026-04-27 20:57 -21.97442 -48.68726 24951 ft 270 kts 39°
2026-04-27 20:57 -21.96139 -48.67284 24950 ft 270 kts 39°
2026-04-27 20:57 -21.94829 -48.65834 24949 ft 270 kts 39°
2026-04-27 20:57 -21.93525 -48.64392 24948 ft 270 kts 39°
2026-04-27 20:58 -21.92217 -48.62945 24948 ft 270 kts 39°
2026-04-27 20:58 -21.90911 -48.61501 24947 ft 270 kts 39°
2026-04-27 20:58 -21.89603 -48.60056 24947 ft 270 kts 39°
2026-04-27 20:58 -21.88299 -48.58615 24947 ft 270 kts 38°
2026-04-27 20:59 -21.86992 -48.57171 24947 ft 270 kts 38°
2026-04-27 20:59 -21.85685 -48.55728 24946 ft 270 kts 38°
2026-04-27 20:59 -21.84377 -48.54284 24946 ft 270 kts 38°
2026-04-27 20:59 -21.83068 -48.52839 24946 ft 270 kts 38°
2026-04-27 21:00 -21.81760 -48.51396 24946 ft 270 kts 38°
2026-04-27 21:00 -21.80449 -48.49950 24947 ft 270 kts 38°
2026-04-27 21:00 -21.79142 -48.48508 24947 ft 270 kts 38°
2026-04-27 21:00 -21.77832 -48.47065 24946 ft 270 kts 38°
2026-04-27 21:01 -21.76523 -48.45623 24945 ft 270 kts 38°
2026-04-27 21:01 -21.75213 -48.44180 24945 ft 270 kts 38°
2026-04-27 21:01 -21.73901 -48.42736 24945 ft 270 kts 38°
2026-04-27 21:01 -21.72588 -48.41290 24944 ft 270 kts 38°
2026-04-27 21:02 -21.71282 -48.39853 24944 ft 270 kts 38°
2026-04-27 21:02 -21.69972 -48.38412 24944 ft 270 kts 38°
2026-04-27 21:02 -21.68662 -48.36971 24943 ft 270 kts 38°
2026-04-27 21:02 -21.67347 -48.35527 24943 ft 270 kts 38°
2026-04-27 21:03 -21.66038 -48.34088 24943 ft 270 kts 38°
2026-04-27 21:03 -21.64730 -48.32652 24943 ft 270 kts 38°
2026-04-27 21:03 -21.63418 -48.31212 24943 ft 270 kts 38°
2026-04-27 21:03 -21.62110 -48.29776 24943 ft 269 kts 38°
2026-04-27 21:04 -21.60806 -48.28346 24941 ft 269 kts 39°
2026-04-27 21:04 -21.59495 -48.26909 24941 ft 269 kts 38°
2026-04-27 21:04 -21.58189 -48.25477 24940 ft 269 kts 38°
2026-04-27 21:04 -21.56886 -48.24049 24940 ft 268 kts 38°
2026-04-27 21:05 -21.55579 -48.22618 24940 ft 268 kts 38°
2026-04-27 21:05 -21.54279 -48.21195 24940 ft 268 kts 38°
2026-04-27 21:05 -21.52975 -48.19769 24940 ft 268 kts 39°
2026-04-27 21:05 -21.51673 -48.18345 24939 ft 268 kts 39°
2026-04-27 21:06 -21.50374 -48.16925 24939 ft 267 kts 39°
2026-04-27 21:06 -21.49070 -48.15501 24939 ft 267 kts 39°
2026-04-27 21:06 -21.47772 -48.14083 24937 ft 267 kts 39°
2026-04-27 21:06 -21.46474 -48.12666 24937 ft 267 kts 39°
2026-04-27 21:07 -21.45176 -48.11250 24936 ft 266 kts 39°
2026-04-27 21:07 -21.43881 -48.09837 24935 ft 266 kts 39°
2026-04-27 21:07 -21.42588 -48.08427 24933 ft 266 kts 39°
2026-04-27 21:07 -21.41293 -48.07017 24932 ft 266 kts 39°
2026-04-27 21:08 -21.39996 -48.05604 24932 ft 265 kts 39°
2026-04-27 21:08 -21.38707 -48.04201 24932 ft 265 kts 39°
2026-04-27 21:08 -21.37415 -48.02796 24931 ft 265 kts 40°
2026-04-27 21:08 -21.36126 -48.01395 24931 ft 265 kts 40°
2026-04-27 21:09 -21.34836 -47.99993 24930 ft 264 kts 40°
2026-04-27 21:09 -21.33542 -47.98590 24929 ft 264 kts 40°
2026-04-27 21:09 -21.32254 -47.97193 24929 ft 264 kts 40°
2026-04-27 21:09 -21.30974 -47.95805 24929 ft 264 kts 40°
2026-04-27 21:10 -21.29679 -47.94403 24929 ft 264 kts 40°
2026-04-27 21:10 -21.28393 -47.93013 24929 ft 263 kts 40°
2026-04-27 21:10 -21.27547 -47.92099 24928 ft 263 kts 40°
2026-04-27 21:10 -21.26264 -47.90715 24927 ft 263 kts 40°
2026-04-27 21:11 -21.24954 -47.89308 24555 ft 277 kts 40°
2026-04-27 21:11 -21.23548 -47.87799 23922 ft 297 kts 41°
2026-04-27 21:11 -21.22054 -47.86184 23314 ft 311 kts 42°
2026-04-27 21:11 -21.20519 -47.84517 22715 ft 320 kts 42°
2026-04-27 21:12 -21.18942 -47.82814 22098 ft 324 kts 42°
2026-04-27 21:12 -21.17539 -47.81317 21457 ft 326 kts 42°
2026-04-27 21:12 -21.15838 -47.79551 20657 ft 328 kts 41°
2026-04-27 21:12 -21.14157 -47.77913 19887 ft 329 kts 38°
2026-04-27 21:13 -21.12229 -47.76614 19108 ft 326 kts 22°
2026-04-27 21:13 -21.10233 -47.75498 18339 ft 327 kts 34°
2026-04-27 21:13 -21.08715 -47.73696 17566 ft 329 kts 57°
2026-04-27 21:13 -21.08135 -47.72249 17068 ft 331 kts 72°
2026-04-27 21:14 -21.07970 -47.69818 16300 ft 332 kts 96°
2026-04-27 21:14 -21.08469 -47.67406 15531 ft 332 kts 107°
2026-04-27 21:14 -21.09363 -47.65140 14756 ft 330 kts 119°
2026-04-27 21:14 -21.10746 -47.63191 13995 ft 329 kts 133°
2026-04-27 21:15 -21.12402 -47.61556 13238 ft 321 kts 141°
2026-04-27 21:15 -21.14228 -47.60263 12467 ft 311 kts 151°
2026-04-27 21:15 -21.16155 -47.59277 11693 ft 304 kts 161°
2026-04-27 21:15 -21.18216 -47.58998 10920 ft 297 kts 185°
2026-04-27 21:16 -21.19210 -47.59145 10544 ft 293 kts 193°
2026-04-27 21:16 -21.21120 -47.59842 9771 ft 287 kts 207°
2026-04-27 21:16 -21.22858 -47.60843 9001 ft 283 kts 212°
2026-04-27 21:16 -21.24525 -47.61939 8228 ft 280 kts 214°
2026-04-27 21:17 -21.26149 -47.63068 7454 ft 277 kts 216°
2026-04-27 21:17 -21.27725 -47.64216 6604 ft 276 kts 216°
2026-04-27 21:17 -21.29319 -47.65397 5597 ft 279 kts 217°
2026-04-27 21:17 -21.30782 -47.66759 4596 ft 278 kts 225°
2026-04-27 21:18 -21.32060 -47.68291 3600 ft 275 kts 230°
2026-04-27 21:18 -21.33250 -47.69861 2958 ft 261 kts 231°
2026-04-27 21:18 -21.34189 -47.71344 3023 ft 230 kts 247°
2026-04-27 21:18 -21.34380 -47.72337 3047 ft 216 kts 267°
2026-04-27 21:19 -21.33983 -47.73710 3121 ft 178 kts 303°
2026-04-27 21:19 -21.33010 -47.74347 3044 ft 160 kts 348°
2026-04-27 21:19 -21.32320 -47.74252 3005 ft 155 kts 21°
2026-04-27 21:20 -21.31056 -47.74160 3046 ft 146 kts 330°
2026-04-27 21:20 -21.30249 -47.74741 3258 ft 140 kts 321°
2026-04-27 21:20 -21.29469 -47.75396 3567 ft 142 kts 320°
2026-04-27 21:20 -21.28645 -47.76043 3921 ft 153 kts 323°
2026-04-27 21:21 -21.27700 -47.76608 4290 ft 160 kts 338°
2026-04-27 21:21 -21.26591 -47.76759 4628 ft 171 kts 356°
2026-04-27 21:21 -21.25414 -47.77084 4801 ft 181 kts 330°
2026-04-27 21:21 -21.24313 -47.77857 4874 ft 192 kts 333°
2026-04-27 21:22 -21.23518 -47.78272 5258 ft 184 kts 328°
2026-04-27 21:22 -21.22321 -47.78834 5341 ft 195 kts 354°
2026-04-27 21:22 -21.21024 -47.78550 5309 ft 197 kts 27°
2026-04-27 21:22 -21.19957 -47.77579 5075 ft 203 kts 53°
2026-04-27 21:23 -21.18773 -47.76777 4191 ft 228 kts
2026-04-27 21:23 -21.17291 -47.76888 4152 ft 202 kts 359°
2026-04-27 21:23 -21.16003 -47.76926 3732 ft 159 kts 353°
2026-04-27 21:23 -21.14907 -47.77107 2630 ft 152 kts 346°
2026-04-27 21:24 -21.13968 -47.77270 2064 ft 126 kts 347°
2026-04-27 21:24 -21.13225 -47.77503 1807 ft 95 kts 341°
2026-04-27 21:24 -21.12864 -47.77597 1807 ft 0 kts 243°